Location: Houston
(29.7630°N, 95.3630°W)
Time: 15:05:59
(UTC-05:00)

Amateur Radio Satellites - All Passes

Search period start: 29 August 2014 14:35
Search period end: 30 August 2014 14:35
Location: Houston, 29.7630°N, 95.3630°W

Satellite Date Start Highest point End Downlink Frequencies (MHz)
Time Altitude Azimuth
Gurwin Techsat 1B 29 Aug 14:38:53 14:43:05 24° 70° (ENE) 14:47:17 435.225 FM
UOSAT-12 29 Aug 14:39:49 14:41:43 12° 50° (NE) 14:43:37 437.025 FM, 437.400 FM
MaSat-1 29 Aug 14:42:09 14:46:16 29° 298° (WNW) 14:50:41 437.345 MHz
Oscar 19 29 Aug 15:00:16 15:04:49 32° 262° (W) 15:09:25 437.125 CW, 437.150 USB
PANSAT 29 Aug 15:25:24 15:29:15 71° 185° (S) 15:33:05 not established
ITAMSAT 1 29 Aug 15:29:06 15:33:55 40° 261° (W) 15:38:45 435.822 SSB
TMSAT-1 29 Aug 15:30:14 15:35:24 59° 75° (ENE) 15:40:36 436.925 FM
JAS-1B 29 Aug 15:34:25 15:44:09 61° 259° (WSW) 15:53:20 435.800 - 435.900 CW/SSB
Oscar 10/S400 29 Aug 15:36:11 15:58:56 29° 152° (SSE) 16:14:48 145.825 - 145.975 CW/USB, Beacon 145.810 USB
Oscar 16 29 Aug 15:37:30 15:39:44 13° 266° (W) 15:41:58 437.025 USB, Beacon 2401.1428
AO-Echo 29 Aug 15:39:12 15:43:30 27° 262° (W) 15:47:43 ?
Uribyol 2 29 Aug 15:39:55 15:44:19 29° 262° (W) 15:48:45 436.500 FM
RS-15 29 Aug 15:40:47 15:46:32 15° 36° (NE) 15:52:20 29.354 - 29.394 USB, Beacon 29.352 USB
AO-7 29 Aug 15:44:57 15:51:43 29° 63° (ENE) 15:58:27 29.400 - 29.500 MHz
AO-27 29 Aug 15:59:06 16:02:45 19° 264° (W) 16:06:25 436.795 MHz FM
UOSAT-12 29 Aug 16:17:37 16:22:16 63° 245° (WSW) 16:26:49 437.025 FM, 437.400 FM
Gurwin Techsat 1B 29 Aug 16:18:11 16:22:50 31° 262° (W) 16:27:30 435.225 FM
Uosat F 29 Aug 16:27:55 16:32:31 38° 72° (ENE) 16:37:07 435.120 FM
PCSat 29 Aug 16:33:41 16:37:49 23° 106° (ESE) 16:41:58 145.825 MHz
PANSAT 29 Aug 17:05:42 17:09:16 36° 197° (SSW) 17:12:49 not established
TMSAT-1 29 Aug 17:13:38 17:15:35 12° 267° (W) 17:17:33 436.925 FM
JAS-2 29 Aug 17:34:37 17:39:00 20° 70° (ENE) 17:43:05 435.800 - 435.900 CW/SSB, 435.910 FM
AO-7 29 Aug 17:35:56 17:44:00 53° 257° (WSW) 17:52:05 29.400 - 29.500 MHz
Sapphire 29 Aug 17:45:50 17:51:13 74° 295° (WNW) 17:56:38 437.095 MHz 1200 baud AX-25 AFSK
RS-15 29 Aug 17:50:26 18:01:30 64° 60° (ENE) 18:13:01 29.354 - 29.394 USB, Beacon 29.352 USB
OPAL 29 Aug 17:50:30 17:55:44 83° 105° (ESE) 18:00:55 ?
Uosat F 29 Aug 18:08:02 18:11:21 18° 264° (W) 18:14:40 435.120 FM
PCSat 29 Aug 18:16:02 18:20:57 35° 299° (WNW) 18:25:54 145.825 MHz
Hamsat 29 Aug 18:26:56 18:31:08 60° 76° (ENE) 18:35:24 145.90 MHz
ISS 29 Aug 18:30:23 18:33:16 27° 41° (NE) 18:36:09 145.800 FM
PANSAT 29 Aug 18:47:40 18:48:59 11° 207° (SSW) 18:50:18 not established
JAS-2 29 Aug 19:17:31 19:23:48 47° 259° (W) 19:29:25 435.800 - 435.900 CW/SSB, 435.910 FM
STRAND 1 29 Aug 19:32:34 19:37:11 34° 99° (E) 19:41:48 ?
RS-15 29 Aug 20:04:04 20:13:05 29° 255° (WSW) 20:22:27 29.354 - 29.394 USB, Beacon 29.352 USB
ISS 29 Aug 20:07:27 20:09:50 18° 233° (SW) 20:12:12 145.800 FM
SO-67 29 Aug 20:10:58 20:14:17 45° 261° (W) 20:17:37 435.3500 MHz FM
HO-68 29 Aug 20:37:30 20:43:15 27° 66° (ENE) 20:48:59 435.675 MHz FM
STRAND 1 29 Aug 21:12:23 21:16:05 21° 291° (WNW) 21:19:48 ?
UKube-1 29 Aug 21:44:14 21:48:19 42° 74° (ENE) 21:52:25 145.840 MHz, 145.915 MHz
Oscar 11 29 Aug 21:51:52 21:55:37 29° 73° (ENE) 21:59:23 145.825 FM, Beacon 2401.500 USB
FUNcube-1 29 Aug 22:15:29 22:18:23 19° 71° (ENE) 22:21:19 145.950 - 145.970 MHz USB
HO-68 29 Aug 22:23:49 22:30:34 46° 259° (W) 22:37:21 435.675 MHz FM
Saudisat 1A 29 Aug 22:42:13 22:46:22 43° 113° (ESE) 22:50:32 436.775 MHz
MaSat-1 29 Aug 23:06:52 23:09:18 15° 56° (NE) 23:11:33 437.345 MHz
UKube-1 29 Aug 23:23:06 23:24:38 12° 266° (W) 23:26:10 145.840 MHz, 145.915 MHz
KITSAT 1 29 Aug 23:28:28 23:36:10 50° 109° (ESE) 23:43:52 435.175 FM
Oscar 11 29 Aug 23:29:00 23:31:46 17° 265° (W) 23:34:34 145.825 FM, Beacon 2401.500 USB
FUNcube-1 29 Aug 23:51:12 23:54:35 24° 263° (W) 23:58:01 145.950 - 145.970 MHz USB
Saudisat 1A 30 Aug 00:23:35 00:26:06 15° 307° (NW) 00:28:38 436.775 MHz
MaSat-1 30 Aug 00:42:41 00:46:29 32° 256° (WSW) 00:49:47 437.345 MHz
KITSAT 1 30 Aug 01:24:49 01:31:43 30° 305° (NW) 01:38:39 435.175 FM
Oscar 19 30 Aug 01:40:45 01:42:58 13° 94° (E) 01:45:10 437.125 CW, 437.150 USB
Oscar 16 30 Aug 02:13:21 02:17:58 32° 98° (E) 02:22:32 437.025 USB, Beacon 2401.1428
AO-Echo 30 Aug 02:15:49 02:17:24 12° 94° (E) 02:18:59 ?
Uribyol 2 30 Aug 02:20:38 02:23:26 15° 94° (E) 02:26:13 436.500 FM
AO-27 30 Aug 02:38:10 02:42:08 22° 96° (E) 02:46:05 436.795 MHz FM
Sapphire 30 Aug 02:40:34 02:45:01 25° 58° (ENE) 02:49:26 437.095 MHz 1200 baud AX-25 AFSK
Gurwin Techsat 1B 30 Aug 03:01:53 03:05:00 16° 94° (E) 03:08:07 435.225 FM
PCSat 30 Aug 03:09:31 03:14:48 51° 63° (ENE) 03:20:02 145.825 MHz
AO-40 30 Aug 03:15:31 04:08:25 14° 245° (WSW) 05:24:37 Beacon 2401.320
Oscar 19 30 Aug 03:17:28 03:22:32 55° 286° (WNW) 03:27:34 437.125 CW, 437.150 USB
JAS-1B 30 Aug 03:29:43 03:36:06 62° 101° (E) 03:41:46 435.800 - 435.900 CW/SSB
ITAMSAT 1 30 Aug 03:47:44 03:52:53 67° 285° (WNW) 03:58:01 435.822 SSB
AO-Echo 30 Aug 03:51:50 03:56:21 48° 286° (WNW) 04:00:54 ?
TMSAT-1 30 Aug 03:52:27 03:57:23 39° 99° (E) 04:02:17 436.925 FM
Oscar 16 30 Aug 03:53:03 03:57:04 23° 291° (WNW) 04:01:05 437.025 USB, Beacon 2401.1428
AO-7 30 Aug 03:58:02 03:58:44 10° 93° (E) 03:59:26 29.400 - 29.500 MHz
Uribyol 2 30 Aug 03:58:04 04:03:03 48° 287° (WNW) 04:08:02 436.500 FM
AO-27 30 Aug 04:17:01 04:21:36 33° 289° (WNW) 04:26:11 436.795 MHz FM
SO-50 30 Aug 04:19:04 04:23:29 72° 298° (WNW) 04:28:00 436.795 FM
Sapphire 30 Aug 04:23:35 04:28:23 33° 252° (WSW) 04:33:11 437.095 MHz 1200 baud AX-25 AFSK
Oscar 10/S400 30 Aug 04:35:06 05:58:26 36° 249° (WSW) 10:08:11 145.825 - 145.975 CW/USB, Beacon 145.810 USB
Gurwin Techsat 1B 30 Aug 04:40:03 04:45:07 47° 287° (WNW) 04:50:09 435.225 FM
Uosat F 30 Aug 04:42:29 04:46:02 19° 96° (E) 04:49:34 435.120 FM
UOSAT-12 30 Aug 04:45:59 04:47:44 12° 107° (ESE) 04:49:29 437.025 FM, 437.400 FM
PCSat 30 Aug 04:54:41 04:57:42 15° 256° (WSW) 05:00:43 145.825 MHz
OPAL 30 Aug 04:59:30 05:04:30 75° 74° (ENE) 05:09:36 ?
JAS-1B 30 Aug 05:22:41 05:25:51 14° 300° (WNW) 05:28:51 435.800 - 435.900 CW/SSB
TMSAT-1 30 Aug 05:33:15 05:36:57 20° 292° (WNW) 05:40:39 436.925 FM
AO-7 30 Aug 05:44:02 05:52:20 80° 106° (ESE) 06:00:37 29.400 - 29.500 MHz
RS-15 30 Aug 06:03:56 06:06:13 11° 99° (E) 06:08:29 29.354 - 29.394 USB, Beacon 29.352 USB
Hamsat 30 Aug 06:19:54 06:22:47 17° 95° (E) 06:25:37 145.90 MHz
Uosat F 30 Aug 06:20:19 06:24:49 34° 288° (WNW) 06:29:18 435.120 FM
UOSAT-12 30 Aug 06:22:55 06:27:21 50° 300° (WNW) 06:31:53 437.025 FM, 437.400 FM
JAS-2 30 Aug 06:32:49 06:37:19 27° 99° (E) 06:42:07 435.800 - 435.900 CW/SSB, 435.910 FM
STRAND 1 30 Aug 06:43:00 06:47:15 27° 70° (ENE) 06:51:30 ?
AO-7 30 Aug 07:39:02 07:44:09 18° 301° (WNW) 07:49:17 29.400 - 29.500 MHz
SO-67 30 Aug 07:41:22 07:43:44 17° 96° (E) 07:46:05 435.3500 MHz FM
Hamsat 30 Aug 07:54:59 07:58:42 28° 287° (WNW) 08:02:22 145.90 MHz
RS-15 30 Aug 08:05:39 08:16:49 75° 113° (ESE) 08:27:42 29.354 - 29.394 USB, Beacon 29.352 USB
JAS-2 30 Aug 08:17:49 08:22:18 28° 288° (WNW) 08:27:07 435.800 - 435.900 CW/SSB, 435.910 FM
STRAND 1 30 Aug 08:22:07 08:26:18 26° 263° (W) 08:30:30 ?
Saudisat 1A 30 Aug 08:53:41 08:58:06 84° 63° (ENE) 09:02:30 436.775 MHz
SO-67 30 Aug 09:14:20 09:16:36 17° 288° (WNW) 09:18:52 435.3500 MHz FM
KITSAT 1 30 Aug 09:23:21 09:31:07 49° 60° (ENE) 09:38:50 435.175 FM
ISS 30 Aug 09:33:02 09:35:00 15° 126° (SE) 09:36:58 145.800 FM
UKube-1 30 Aug 09:40:39 09:42:13 12° 94° (E) 09:43:47 145.840 MHz, 145.915 MHz
HO-68 30 Aug 09:57:46 10:04:40 50° 101° (ESE) 10:11:32 435.675 MHz FM
RS-15 30 Aug 10:21:19 10:30:05 26° 313° (NW) 10:38:50 29.354 - 29.394 USB, Beacon 29.352 USB
ISS 30 Aug 11:08:29 11:11:29 31° 318° (NW) 11:14:31 145.800 FM
UKube-1 30 Aug 11:14:27 11:18:32 41° 286° (WNW) 11:22:36 145.840 MHz, 145.915 MHz
KITSAT 1 30 Aug 11:19:28 11:26:04 29° 255° (WSW) 11:32:40 435.175 FM
Oscar 11 30 Aug 11:20:57 11:25:14 57° 284° (WNW) 11:29:29 145.825 FM, Beacon 2401.500 USB
PANSAT 30 Aug 11:40:48 11:44:08 28° 160° (SSE) 11:47:28 not established
FUNcube-1 30 Aug 11:45:01 11:49:35 85° 283° (WNW) 11:54:12 145.950 - 145.970 MHz USB
HO-68 30 Aug 11:46:21 11:51:55 25° 295° (WNW) 11:57:29 435.675 MHz FM
MaSat-1 30 Aug 12:47:38 12:51:13 22° 102° (ESE) 12:55:02 437.345 MHz
Oscar 19 30 Aug 12:53:42 12:54:33 10° 65° (ENE) 12:55:23 437.125 CW, 437.150 USB
SO-50 30 Aug 12:57:00 13:00:42 22° 55° (NE) 13:04:25 436.795 FM
PANSAT 30 Aug 13:20:15 13:24:05 63° 172° (S) 13:27:55 not established
Oscar 16 30 Aug 13:24:50 13:29:00 25° 70° (ENE) 13:33:11 437.025 USB, Beacon 2401.1428
Uribyol 2 30 Aug 13:33:54 13:35:59 12° 66° (ENE) 13:38:03 436.500 FM
AO-27 30 Aug 13:51:08 13:54:40 19° 68° (ENE) 13:58:13 436.795 MHz FM
JAS-1B 30 Aug 14:04:15 14:13:09 40° 69° (ENE) 14:21:24 435.800 - 435.900 CW/SSB
Gurwin Techsat 1B 30 Aug 14:17:54 14:20:41 15° 66° (ENE) 14:23:28 435.225 FM
MaSat-1 30 Aug 14:23:44 14:27:58 32° 298° (WNW) 14:32:30 437.345 MHz
